Starlink 4080

operational
NORAD ID: 52835 Int'l Des: 2022-062 Owner: SPXS Country: US Constellation: starlink
LEOCIRCULAR

Über Starlink 4080

Beschreibung wird geladen...

Live-Position

3D-Globus wird geladen...

Nächste Überflüge

Höhenverlauf

Altitude vs Time

uPlot chart will show altitude changes over time

Zweizeiliger Elementsatz

1 52835U 22062F 25304.12564709 .00000540 00000-0 51989-4 0 9998
2 52835 53.2171 255.7577 0001350 92.3437 267.7710 15.08838565186227
Epoch: 31. Okt. 2025 • Age: 18 hours

Aktueller Status

Höhe 543.1 km
Geschwindigkeit 7.60 km/s
Subsatellitenpunkt 42.48°N, 33.39°E
Startdatum 17. Juni 2022
Alter 3.3 years
Typ internet

Technische Details

Klassifizierung Payload
Masse 297.00 kg
Trockenmasse 275.00 kg
Gesamtmasse 297.00 kg
Länge 0.20 m
Durchmesser 2.80 m
Spannweite 9.00 m
Form Box + pan
Hersteller SPXS
Bus-Typ Starlink
Phasenstatus In Orbit
Besitzer/Staat SPXS/US

Große Konstellationen

Loading constellations...